ウィルタネン彗星

46P/Wirtanen (2008)

English version
Home page
Updated on October 12, 2008

---------------------------------------------------------------------

・ プロフィール

・ 写真集

・ 軌道要素

Epoch 2008 Jan. 15.0 TT = JDT 2454480.5
T 2008 Feb. 2.49577 TT                                  MPC
q   1.0574872            (2000.0)            P               Q
n   0.18116891     Peri.  356.34763     +0.19766327     -0.95932337
a   3.0932399      Node    82.17486     +0.90445704     +0.09918948
e   0.6581296      Incl.   11.73926     +0.37800357     +0.26431064
P   5.44
From 505 observations 1995 June 26-2007 Aug. 6, mean residual 0".82.  Non-
   gravitational parameters A1 = +0.34 +/- 0.01, A2 = -0.1373 +/- 0.0002.

・ 星図

・ 光度変化

        m1 = 14.5 + 5 logΔ +  8.0 log r          [    ,-150]  (              〜2007年 9月 5日)
        m1 =  8.0 + 5 logΔ + 27.0 log r(t - 12)  [-150, 180]  (2007年 9月 5日〜2008年 7月31日)
        m1 = 14.5 + 5 logΔ +  8.0 log r          [ 180,    ]  (2008年 7月31日〜              )

---------------------------------------------------------------------

軌道要素はM.P.E.C. 2007-P17に掲載されたものです。
星図は StellaNavigator Ver.2.0 for Windows (アストロアーツ 編著 / アスキー出版局刊) で作成したものです。
光度グラフはComet for Windowsで作成したものです。

---------------------------------------------------------------------

Copyright(C) Seiichi Yoshida (comet@aerith.net). All rights reserved.